Active alerts


No alerts


weather webcam more information weather webcam


Thunder radar more information blitzortung!


Rain radar more information rain snow radar


Visit our other weather sites:

Template documentation
and downloads

And another site


Weather Underground History page Text

Daily Summary for May 25, 2018 Units:  English    Metric   Both
« Previous Day
Next Day »
Daily Weekly Monthly Yearly Custom
  Current: High: Low: Average:
Temperature: 81.0 °F TemperatureF °F 65.4 °F 69.3 °F
Dew Point: 70.7 °F DewpointF °F 63.0 °F 65.1 °F
Humidity: 71 % Humidity % 70 % 86 %
Wind Speed: 1.0 mph WindSpeedMPH mph 0.0 mph 2.1 mph
Wind Gust: 10.0 mph WindSpeedGustMPH mph - -
Wind:SSE - - SSE
Pressure: 29.74 in PressureIn in 29.74 in -
Precipitation: 0.06 in      
Historical Graphs
 
 
Tabular Data for May 25, 2018
Time Temperature Dew Point Pressure Wind Wind Speed Wind Gust Humidity Rainfall Rate (Hourly)
TemperatureF °F DewpointF °F PressureIn in Calm     Humidity % HourlyPrecipIn in
00:00 69.0 °F 65.3 °F 29.85 in East 3.0 mph 7.0 mph 88 % 0.00 in
00:05 69.0 °F 65.3 °F 29.85 in SE 2.0 mph 7.0 mph 88 % 0.00 in
00:10 69.0 °F 65.3 °F 29.85 in SE 2.0 mph 8.0 mph 88 % 0.00 in
00:15 69.0 °F 65.3 °F 29.85 in ESE 2.0 mph 8.0 mph 88 % 0.00 in
00:20 69.1 °F 65.4 °F 29.85 in ESE 4.0 mph 7.0 mph 88 % 0.00 in
00:25 69.1 °F 65.1 °F 29.85 in Calm   7.0 mph 87 % 0.00 in
00:30 69.1 °F 65.1 °F 29.85 in Calm   6.0 mph 87 % 0.00 in
00:35 69.0 °F 65.3 °F 29.85 in ESE 1.0 mph 4.0 mph 88 % 0.00 in
00:40 69.0 °F 65.3 °F 29.84 in ESE 1.0 mph 3.0 mph 88 % 0.00 in
00:45 68.9 °F 65.2 °F 29.84 in ESE 1.0 mph 3.0 mph 88 % 0.00 in
00:50 69.0 °F 65.3 °F 29.84 in ESE 1.0 mph 3.0 mph 88 % 0.00 in
00:55 69.0 °F 65.3 °F 29.84 in ESE 1.0 mph 3.0 mph 88 % 0.00 in
01:00 68.9 °F 65.2 °F 29.83 in ESE 1.0 mph 3.0 mph 88 % 0.00 in
01:05 68.9 °F 65.2 °F 29.82 in ESE 2.0 mph 3.0 mph 88 % 0.00 in
01:10 68.8 °F 65.1 °F 29.82 in ESE 2.0 mph 3.0 mph 88 % 0.00 in
01:15 68.8 °F 65.1 °F 29.81 in Calm   3.0 mph 88 % 0.00 in
01:20 68.8 °F 65.1 °F 29.81 in ESE 2.0 mph 3.0 mph 88 % 0.00 in
01:25 68.7 °F 65.0 °F 29.81 in SE 3.0 mph 6.0 mph 88 % 0.00 in
01:30 68.7 °F 65.0 °F 29.81 in ESE 2.0 mph 6.0 mph 88 % 0.00 in
01:35 68.8 °F 65.1 °F 29.80 in ESE 2.0 mph 4.0 mph 88 % 0.00 in
01:40 68.8 °F 65.1 °F 29.80 in ESE 1.0 mph 4.0 mph 88 % 0.00 in
01:45 68.8 °F 65.1 °F 29.80 in ESE 1.0 mph 4.0 mph 88 % 0.00 in
01:50 68.8 °F 65.1 °F 29.81 in ESE 1.0 mph 3.0 mph 88 % 0.00 in
01:55 68.8 °F 65.1 °F 29.80 in ESE 2.0 mph 3.0 mph 88 % 0.00 in
02:00 68.8 °F 65.1 °F 29.80 in ESE 1.0 mph 3.0 mph 88 % 0.00 in
02:05 68.7 °F 65.0 °F 29.79 in ESE 1.0 mph 3.0 mph 88 % 0.00 in
02:10 68.7 °F 65.0 °F 29.78 in Calm   3.0 mph 88 % 0.00 in
02:15 68.6 °F 65.2 °F 29.79 in Calm   1.0 mph 89 % 0.00 in
02:20 68.3 °F 64.9 °F 29.79 in Calm     89 % 0.00 in
02:25 68.2 °F 64.8 °F 29.80 in Calm     89 % 0.00 in
02:30 68.1 °F 64.7 °F 29.80 in ESE 2.0 mph 2.0 mph 89 % 0.00 in
02:35 68.1 °F 65.1 °F 29.84 in WNW 4.0 mph 13.0 mph 90 % 0.00 in
02:40 68.2 °F 64.8 °F 29.83 in Calm   13.0 mph 89 % 0.00 in
02:45 68.3 °F 64.9 °F 29.83 in West 1.0 mph 8.0 mph 89 % 0.00 in
02:50 68.5 °F 64.8 °F 29.84 in SW 5.0 mph 8.0 mph 88 % 0.00 in
02:55 68.9 °F 64.5 °F 29.83 in NW 2.0 mph 14.0 mph 86 % 0.00 in
03:00 69.3 °F 64.3 °F 29.83 in West 3.0 mph 14.0 mph 84 % 0.00 in
03:05 69.6 °F 64.2 °F 29.83 in WNW 3.0 mph 10.0 mph 83 % 0.00 in
03:10 69.8 °F 64.1 °F 29.82 in Calm   8.0 mph 82 % 0.00 in
03:15 69.9 °F 64.2 °F 29.83 in Calm   3.0 mph 82 % 0.00 in
03:20 69.8 °F 64.4 °F 29.83 in WSW 2.0 mph 3.0 mph 83 % 0.00 in
03:25 69.9 °F 64.5 °F 29.84 in SW 3.0 mph 6.0 mph 83 % 0.00 in
03:30 69.8 °F 64.1 °F 29.83 in West 2.0 mph 8.0 mph 82 % 0.00 in
03:35 69.6 °F 64.2 °F 29.84 in SSW 3.0 mph 11.0 mph 83 % 0.01 in
03:40 69.0 °F 64.0 °F 29.84 in SSW 4.0 mph 11.0 mph 84 % 0.03 in
03:45 68.3 °F 63.6 °F 29.82 in East 1.0 mph 6.0 mph 85 % 0.05 in
03:50 67.5 °F 63.5 °F 29.79 in SE 4.0 mph 6.0 mph 87 % 0.05 in
03:55 67.0 °F 63.3 °F 29.81 in SSW 3.0 mph 5.0 mph 88 % 0.05 in
04:00 66.6 °F 63.6 °F 29.81 in Calm   5.0 mph 90 % 0.06 in
04:05 66.3 °F 63.3 °F 29.81 in ESE 3.0 mph 6.0 mph 90 % 0.06 in
04:10 66.0 °F 63.3 °F 29.81 in ESE 2.0 mph 6.0 mph 91 % 0.06 in
04:15 65.9 °F 63.2 °F 29.80 in Calm   6.0 mph 91 % 0.06 in
04:20 65.8 °F 63.1 °F 29.80 in Calm   4.0 mph 91 % 0.06 in
04:25 65.6 °F 63.2 °F 29.80 in ESE 3.0 mph 3.0 mph 92 % 0.06 in
04:30 65.6 °F 63.2 °F 29.79 in ESE 3.0 mph 4.0 mph 92 % 0.06 in
04:35 65.5 °F 63.1 °F 29.79 in SE 3.0 mph 5.0 mph 92 % 0.05 in
04:40 65.5 °F 63.1 °F 29.78 in ESE 3.0 mph 5.0 mph 92 % 0.02 in
04:45 65.4 °F 63.0 °F 29.78 in Calm   4.0 mph 92 % 0.01 in
04:50 65.4 °F 63.0 °F 29.79 in Calm   3.0 mph 92 % 0.01 in
04:55 65.4 °F 63.3 °F 29.79 in East 1.0 mph 3.0 mph 93 % 0.01 in
05:00 65.4 °F 63.3 °F 29.79 in ESE 1.0 mph 3.0 mph 93 % 0.00 in
05:05 65.5 °F 63.4 °F 29.78 in ESE 1.0 mph 3.0 mph 93 % 0.00 in
05:10 65.6 °F 63.5 °F 29.78 in ESE 1.0 mph 3.0 mph 93 % 0.00 in
05:15 65.6 °F 63.5 °F 29.78 in ESE 2.0 mph 3.0 mph 93 % 0.00 in
05:20 65.7 °F 63.6 °F 29.78 in Calm   3.0 mph 93 % 0.00 in
05:25 65.7 °F 63.6 °F 29.78 in Calm   3.0 mph 93 % 0.00 in
05:30 65.6 °F 63.5 °F 29.78 in ESE 2.0 mph 2.0 mph 93 % 0.00 in
05:35 65.6 °F 63.5 °F 29.78 in ESE 3.0 mph 4.0 mph 93 % 0.00 in
05:40 65.5 °F 63.4 °F 29.78 in SE 3.0 mph 4.0 mph 93 % 0.00 in
05:45 65.4 °F 63.0 °F 29.78 in Calm   4.0 mph 92 % 0.00 in
05:50 65.4 °F 63.3 °F 29.77 in Calm   3.0 mph 93 % 0.00 in
05:55 65.4 °F 63.3 °F 29.78 in SE 1.0 mph 2.0 mph 93 % 0.00 in
06:00 65.4 °F 63.3 °F 29.78 in Calm   2.0 mph 93 % 0.00 in
06:05 65.4 °F 63.3 °F 29.78 in Calm   2.0 mph 93 % 0.00 in
06:10 65.5 °F 63.4 °F 29.79 in SE 2.0 mph 4.0 mph 93 % 0.00 in
06:15 65.6 °F 63.5 °F 29.79 in SE 2.0 mph 6.0 mph 93 % 0.00 in
06:20 65.7 °F 63.3 °F 29.79 in SE 2.0 mph 6.0 mph 92 % 0.00 in
06:23 65.7 °F 63.3 °F 29.79 in SE 1.0 mph 4.0 mph 92 % 0.00 in
06:28 65.8 °F 63.4 °F 29.79 in ESE 3.0 mph 4.0 mph 92 % 0.00 in
06:33 66.0 °F 63.6 °F 29.78 in ESE 2.0 mph 4.0 mph 92 % 0.00 in
06:38 66.1 °F 63.7 °F 29.78 in ESE 1.0 mph 4.0 mph 92 % 0.00 in
06:43 66.2 °F 63.5 °F 29.78 in Calm   7.0 mph 91 % 0.00 in
06:48 66.3 °F 63.6 °F 29.78 in ESE 2.0 mph 7.0 mph 91 % 0.00 in
06:53 66.5 °F 63.8 °F 29.78 in Calm   5.0 mph 91 % 0.00 in
06:58 66.6 °F 63.9 °F 29.78 in SE 2.0 mph 5.0 mph 91 % 0.00 in
07:03 66.7 °F 64.0 °F 29.77 in ESE 3.0 mph 5.0 mph 91 % 0.00 in
07:07 66.8 °F 64.1 °F 29.77 in SE 2.0 mph 5.0 mph 91 % 0.00 in
07:12 66.9 °F 64.2 °F 29.78 in SE 1.0 mph 5.0 mph 91 % 0.00 in
07:17 67.0 °F 64.3 °F 29.78 in Calm   7.0 mph 91 % 0.00 in
07:22 67.1 °F 64.4 °F 29.78 in ESE 2.0 mph 7.0 mph 91 % 0.00 in
07:27 67.2 °F 64.5 °F 29.78 in South 4.0 mph 5.0 mph 91 % 0.00 in
07:32 67.3 °F 64.6 °F 29.78 in Calm   5.0 mph 91 % 0.00 in
07:37 67.4 °F 64.7 °F 29.78 in ESE 3.0 mph 4.0 mph 91 % 0.00 in
07:42 67.5 °F 64.5 °F 29.78 in East 2.0 mph 5.0 mph 90 % 0.00 in
07:47 67.6 °F 64.6 °F 29.78 in ESE 2.0 mph 5.0 mph 90 % 0.00 in
07:52 67.8 °F 64.8 °F 29.78 in SSE 1.0 mph 5.0 mph 90 % 0.00 in
07:57 68.0 °F 65.0 °F 29.77 in SSE 1.0 mph 6.0 mph 90 % 0.00 in
08:02 68.2 °F 64.8 °F 29.77 in SE 3.0 mph 6.0 mph 89 % 0.00 in
08:07 68.3 °F 64.9 °F 29.77 in Calm   6.0 mph 89 % 0.00 in
08:12 68.4 °F 65.0 °F 29.77 in South 2.0 mph 6.0 mph 89 % 0.00 in
08:17 68.6 °F 65.2 °F 29.77 in SSW 1.0 mph 5.0 mph 89 % 0.00 in
08:22 68.8 °F 65.4 °F 29.77 in South 2.0 mph 8.0 mph 89 % 0.00 in
08:27 69.0 °F 65.6 °F 29.76 in SE 1.0 mph 8.0 mph 89 % 0.00 in
08:32 69.3 °F 65.9 °F 29.76 in South 3.0 mph 7.0 mph 89 % 0.00 in
08:37 69.7 °F 66.3 °F 29.76 in ESE 2.0 mph 8.0 mph 89 % 0.00 in
08:42 70.0 °F 66.6 °F 29.76 in South 7.0 mph 8.0 mph 89 % 0.00 in
08:47 70.2 °F 66.5 °F 29.76 in SW 2.0 mph 8.0 mph 88 % 0.00 in
08:52 70.6 °F 66.9 °F 29.76 in South 3.0 mph 8.0 mph 88 % 0.00 in
08:57 70.9 °F 66.8 °F 29.75 in SSE 1.0 mph 10.0 mph 87 % 0.00 in
09:02 71.3 °F 67.2 °F 29.75 in ESE 1.0 mph 10.0 mph 87 % 0.00 in
09:08 71.7 °F 67.6 °F 29.75 in South 6.0 mph 9.0 mph 87 % 0.00 in
09:13 72.1 °F 67.7 °F 29.75 in SE 2.0 mph 11.0 mph 86 % 0.00 in
09:18 72.6 °F 68.2 °F 29.75 in SE 2.0 mph 11.0 mph 86 % 0.00 in
09:23 73.1 °F 68.3 °F 29.75 in ESE 1.0 mph 11.0 mph 85 % 0.00 in
09:28 73.7 °F 68.9 °F 29.74 in SSW 7.0 mph 12.0 mph 85 % 0.00 in
09:33 74.3 °F 68.8 °F 29.74 in SE 2.0 mph 12.0 mph 83 % 0.00 in
09:38 74.7 °F 68.8 °F 29.75 in Calm   11.0 mph 82 % 0.00 in
09:43 74.9 °F 68.7 °F 29.75 in South 3.0 mph 11.0 mph 81 % 0.00 in
09:48 75.1 °F 68.5 °F 29.75 in South 10.0 mph 13.0 mph 80 % 0.00 in
09:53 75.2 °F 68.6 °F 29.75 in WSW 3.0 mph 13.0 mph 80 % 0.00 in
09:58 75.4 °F 68.4 °F 29.75 in WSW 7.0 mph 14.0 mph 79 % 0.00 in
10:03 75.4 °F 68.1 °F 29.75 in SSW 2.0 mph 14.0 mph 78 % 0.00 in
10:08 75.4 °F 68.1 °F 29.75 in SW 3.0 mph 10.0 mph 78 % 0.00 in
10:13 75.4 °F 68.1 °F 29.75 in South 6.0 mph 10.0 mph 78 % 0.00 in
10:18 75.5 °F 68.5 °F 29.75 in SSW 5.0 mph 11.0 mph 79 % 0.00 in
10:23 75.6 °F 68.6 °F 29.75 in SSE 4.0 mph 12.0 mph 79 % 0.00 in
10:28 75.7 °F 68.7 °F 29.75 in South 4.0 mph 13.0 mph 79 % 0.00 in
10:33 75.9 °F 69.3 °F 29.75 in SE 2.0 mph 13.0 mph 80 % 0.00 in
10:38 76.4 °F 69.0 °F 29.75 in South 5.0 mph 9.0 mph 78 % 0.00 in
10:43 76.9 °F 69.5 °F 29.75 in WSW 2.0 mph 9.0 mph 78 % 0.00 in
10:48 77.7 °F 70.3 °F 29.75 in SSW 3.0 mph 8.0 mph 78 % 0.00 in
10:53 78.1 °F 69.9 °F 29.75 in SSW 2.0 mph 9.0 mph 76 % 0.00 in
10:58 78.4 °F 69.8 °F 29.75 in South 3.0 mph 9.0 mph 75 % 0.00 in
11:03 78.6 °F 70.0 °F 29.75 in ESE 2.0 mph 9.0 mph 75 % 0.00 in
11:08 78.6 °F 69.6 °F 29.75 in South 7.0 mph 15.0 mph 74 % 0.00 in
11:13 78.5 °F 69.5 °F 29.75 in WSW 5.0 mph 15.0 mph 74 % 0.00 in
11:18 78.8 °F 70.2 °F 29.74 in SE 3.0 mph 12.0 mph 75 % 0.00 in
11:23 79.1 °F 70.1 °F 29.75 in SSW 2.0 mph 12.0 mph 74 % 0.00 in
11:28 79.6 °F 71.0 °F 29.74 in SW 4.0 mph 10.0 mph 75 % 0.00 in
11:33 80.0 °F 71.0 °F 29.74 in SW 5.0 mph 9.0 mph 74 % 0.00 in
11:38 80.5 °F 70.6 °F 29.74 in SSE 5.0 mph 9.0 mph 72 % 0.00 in
11:43 80.7 °F 70.0 °F 29.74 in SSE 3.0 mph 9.0 mph 70 % 0.00 in
11:48 81.0 °F 70.7 °F 29.74 in SSE 1.0 mph 10.0 mph 71 % 0.00 in
Edina, Minnesota
Compliments of Weather Underground - 4 mb

Script developed by  Jim McMurry - jmcmurry@mwt.net Adapted for the template by  Wim van der Kuil - Leuven-Template.eu

You find our weather info also at:

Weather Underground

Midwestern Weather Network

Citizen Weather Observer Program (CWOP)

HAMweather, WeatherForYou, PWS Weather

Equipment we use:

Weather-station
Davis VP2

Weather-program
Cumulus

Davis VP2

Cumulus